Tracking 19564 objects as of 19-Mar-2019
HD Live streaming from Space Station
objects crossing your sky now

NTS 2

Track NTS 2 now!
NTS 2 is classified as:


NORAD ID: 10091
Int'l Code: 1977-053A
Perigee: 20,033.3 km
Apogee: 20,364.1 km
Inclination: 64.5 °
Period: 718.4 minutes
Semi major axis: 26569 km
RCS: 3.8343 m2 (large)
Launch date: June 23, 1977
Source: United States (US)
Launch site: AIR FORCE WESTERN TEST RANGE (AFWTR)
aabbcc
Your satellite tracking list
Your tracking list is empty




NASA's NSSDC Master Catalog

Two Line Element Set (TLE):
1 10091U 77053A   19077.43620740 -.00000071 +00000-0 +00000-0 0  9992
2 10091 064.5416 003.7660 0062256 228.5770 339.5240 02.00458201305605
Source of the keplerian elements: AFSPC